Weather in Pomary

Russia / Mari El Republic     55°58′01″N   48°21′04″E
temp.,
°C
wind,
m/s
gust,
m/s
humid.,
%
clouds,
%
prec.,
mm/h
press.,
hPa
HPBL,
m
24 june, thu
thu2400:00+20w348526 0.5 101856
03:00+18nnw228346 0.5 101929
06:00+22nnw247383 0.0 1019155
09:00+28n245694 0.0 1019589
12:00+31nw24417 0.0 10182035
15:00+33nnw243623 0.0 10172569
18:00+31ene125616 0.0 1016153
21:00+24sw127472 0.0 101612
25 june, fri
fri2500:00+23wsw2279100 0.0 101616
03:00+22wnw2483100 0.0 101659
06:00+24nw377584 0.0 1015219
09:00+29nw35555 0.0 1015598
12:00+33wnw46390 0.0 10152173
15:00+34w564113 0.0 10142216
18:00+29w6126424 0.0 1013548
21:00+21ese1276100 0.5 101311
26 june, sat
sat2600:00+20ssw228794 1.8 101333
03:00+21wsw129197 1.9 101317
06:00+23nw368584 0.0 1012240
09:00+28nw355710 0.0 1013825
12:00+31nw474391 0.0 10121932
15:00+32nnw463919 0.0 10122302
18:00+30ne24585 0.0 1011182
21:00+23w247552 0.1 101279
27 june, sun
sun2700:00+20w27932 1.0 1012160
03:00+19sw00869 1.0 101211
06:00+22wsw11740 0.0 1013116
09:00+27wsw11564 0.0 1013491
12:00+31w235011 0.0 10121366
15:00+31sw335052 0.0 10121108
18:00+21ese61190100 8.9 1013293
21:00+20w2393100 24.0 101376
28 june, mon
mon2800:00+20ese1291100 0.6 101316
03:00+19se229328 0.6 101420
06:00+22e018776 0.0 1014143
09:00+26se236927 0.0 1014636
12:00+29sse335711 0.0 10141240
15:00+30se225437 0.1 10131581
18:00+26ese478091 1.4 1012262
21:00+21se378847 1.6 1013145